EW6960 Weather Reports


time (UTC)temp
C
wind
direction
speed
KPH
gust
KPH
rain 1hr
cm
rain 24hr
cm
rain mn
cm
humidity
%
barometer
mb
20260508014002 10 354 0.0 1.6 0.00 0.00 0.00 84 1014.9
20260508013002 10 354 0.0 1.6 0.00 0.00 0.00 84 1015.2
20260508012023 10 0 0.0 0.0 0.00 0.00 0.00 83 1015.2
20260508011002 11 354 0.0 3.2 0.00 0.00 0.00 82 1015.3
20260508010002 11 0 0.0 1.6 0.00 0.00 0.00 82 1015.4
20260508005002 11 354 0.0 1.6 0.00 0.00 0.00 81 1015.4
20260508004002 11 0 0.0 0.0 0.00 0.00 0.00 80 1015.4
20260508003023 11 0 0.0 0.0 0.00 0.00 0.00 80 1015.5
20260508002002 11 0 0.0 1.6 0.00 0.00 0.00 79 1015.3
20260508001002 11 0 0.0 0.0 0.00 0.00 0.00 77 1015.4
20260508000002 11 354 0.0 1.6 0.00 0.00 0.00 76 1015.4
20260507235002 11 355 0.0 1.6 0.00 0.00 0.00 76 1015.8
20260507234002 11 0 0.0 1.6 0.00 0.00 0.00 75 1015.5
20260507233002 10 0 0.0 1.6 0.00 0.00 0.00 76 1015.6
20260507232002 11 0 0.0 0.0 0.00 0.00 0.00 78 1015.5
20260507231023 10 0 0.0 0.0 0.00 0.00 0.00 79 1015.5
20260507230003 11 0 0.0 0.0 0.00 0.00 0.00 79 1015.6
20260507225023 11 0 0.0 0.0 0.00 0.00 0.00 79 1015.6
20260507224023 11 0 0.0 0.0 0.00 0.00 0.00 79 1015.6
20260507223023 10 0 0.0 0.0 0.00 0.00 0.00 79 1015.5
20260507222002 10 0 0.0 0.0 0.00 0.00 0.00 80 1015.7
20260507221002 11 0 0.0 0.0 0.00 0.00 0.00 80 1015.7
20260507220023 11 0 0.0 0.0 0.00 0.00 0.00 81 1015.6
20260507215002 10 0 0.0 1.6 0.00 0.00 0.00 85 1015.7
20260507214002 11 0 0.0 0.0 0.00 0.00 0.00 88 1015.7
20260507213002 11 0 0.0 0.0 0.00 0.00 0.00 88 1015.6
20260507212002 11 0 0.0 0.0 0.00 0.00 0.00 89 1015.5
20260507211023 11 0 0.0 0.0 0.00 0.00 0.00 89 1015.3
20260507210024 11 0 0.0 0.0 0.00 0.00 0.00 88 1015.2
20260507205003 11 0 0.0 0.0 0.00 0.00 0.00 87 1015.2
20260507204024 11 0 0.0 0.0 0.00 0.00 0.00 87 1015.5
20260507203002 11 0 0.0 0.0 0.00 0.00 0.00 86 1015.1
20260507202002 12 0 0.0 0.0 0.00 0.00 0.00 85 1015.1
20260507201002 12 0 0.0 0.0 0.00 0.00 0.00 84 1015.2
20260507200023 12 0 0.0 0.0 0.00 0.00 0.00 83 1015.1
20260507195003 12 0 0.0 0.0 0.00 0.00 0.00 83 1014.8
20260507194003 12 0 0.0 0.0 0.00 0.00 0.00 82 1014.9
20260507193002 12 0 0.0 0.0 0.00 0.00 0.00 81 1014.7
20260507192002 13 0 0.0 0.0 0.00 0.00 0.00 80 1014.8
20260507191002 13 0 0.0 0.0 0.00 0.00 0.00 79 1014.7
20260507190004 13 0 0.0 0.0 0.00 0.00 0.00 78 1014.6
20260507185002 13 0 0.0 0.0 0.00 0.00 0.00 77 1014.5
20260507184003 13 0 0.0 0.0 0.00 0.00 0.00 77 1014.6
20260507183002 13 354 0.0 3.2 0.00 0.00 0.00 76 1014.7
20260507182002 13 354 0.0 3.2 0.00 0.00 0.00 72 1014.4
20260507181002 14 36 0.0 3.2 0.00 0.00 0.00 72 1014.6
20260507180002 14 113 0.0 3.2 0.00 0.00 0.00 68 1014.6
20260507175002 15 340 0.0 1.6 0.00 0.00 0.00 64 1014.5
20260507174002 15 340 0.0 1.6 0.00 0.00 0.00 69 1014.3
20260507172002 14 278 0.0 3.2 0.00 0.00 0.00 70 1014.4
20260507171003 14 20 0.0 3.2 0.00 0.00 0.00 72 1014.6
20260507170024 15 116 0.0 3.2 0.00 0.00 0.00 70 1014.7
20260507165024 15 82 0.0 1.6 0.00 0.00 0.00 70 1014.5
20260507164003 15 85 0.0 4.8 0.00 0.00 0.00 70 1014.5
20260507163002 15 111 1.6 6.4 0.00 0.00 0.00 69 1014.6
20260507162002 16 141 1.6 6.4 0.00 0.00 0.00 58 1014.6
20260507161002 16 113 1.6 6.4 0.00 0.00 0.00 54 1014.6
20260507160002 16 85 0.0 4.8 0.00 0.00 0.00 56 1014.3
20260507155002 15 129 0.0 4.8 0.00 0.00 0.00 56 1014.5
20260507154003 15 130 0.0 9.7 0.00 0.00 0.00 58 1014.4
20260507153003 16 145 0.0 3.2 0.00 0.00 0.00 57 1014.6
20260507152003 15 125 0.0 3.2 0.00 0.00 0.00 57 1014.6
20260507151002 15 121 0.0 3.2 0.00 0.00 0.00 59 1014.4
20260507150024 16 139 0.0 3.2 0.00 0.00 0.00 57 1014.7
20260507145003 15 133 0.0 4.8 0.00 0.00 0.00 59 1014.7
20260507144003 15 117 0.0 4.8 0.00 0.00 0.00 62 1014.9
20260507143003 14 95 1.6 4.8 0.00 0.00 0.00 65 1015.0
20260507142003 14 110 1.6 4.8 0.00 0.00 0.00 64 1015.0
20260507141024 15 104 1.6 6.4 0.00 0.00 0.00 63 1015.1
20260507140024 15 111 1.6 6.4 0.00 0.00 0.00 63 1015.1
20260507135024 15 136 1.6 4.8 0.00 0.00 0.00 62 1015.0
20260507134003 15 237 0.0 4.8 0.00 0.00 0.00 61 1015.0
20260507133003 13 295 0.0 1.6 0.00 0.00 0.00 71 1015.0
20260507132003 14 0 0.0 0.0 0.00 0.00 0.00 72 1014.9
20260507131003 13 0 0.0 0.0 0.00 0.00 0.00 75 1015.1
20260507130003 13 60 0.0 1.6 0.00 0.00 0.00 77 1015.2
20260507125003 13 0 0.0 1.6 0.00 0.00 0.00 79 1015.4
20260507124003 13 105 0.0 3.2 0.00 0.00 0.00 80 1015.5
20260507123003 13 117 0.0 4.8 0.00 0.00 0.00 77 1015.2
20260507122003 14 124 0.0 6.4 0.00 0.00 0.00 70 1015.5
20260507121024 14 114 0.0 1.6 0.00 0.00 0.00 66 1015.2
20260507120024 14 125 0.0 3.2 0.00 0.00 0.00 64 1015.3
20260507115003 14 110 0.0 3.2 0.00 0.00 0.00 66 1015.3
20260507114003 14 134 0.0 6.4 0.00 0.00 0.00 66 1015.2
20260507113003 14 113 1.6 6.4 0.00 0.00 0.00 65 1015.4
20260507112003 14 129 1.6 9.7 0.00 0.00 0.00 65 1015.4
20260507111003 14 75 0.0 4.8 0.00 0.00 0.00 65 1015.3
20260507110024 14 127 1.6 4.8 0.00 0.00 0.00 64 1015.3
20260507105003 14 123 1.6 4.8 0.00 0.00 0.00 67 1015.5
20260507104003 14 105 0.0 3.2 0.00 0.00 0.00 65 1015.5
20260507103003 14 191 0.0 3.2 0.00 0.00 0.00 67 1015.3
20260507102003 15 161 0.0 4.8 0.00 0.00 0.00 66 1015.7
20260507101024 14 177 1.6 4.8 0.00 0.00 0.00 67 1015.6
20260507100003 14 153 0.0 3.2 0.00 0.00 0.00 68 1015.6
20260507095003 13 174 0.0 3.2 0.00 0.00 0.00 70 1015.6
20260507094003 13 244 1.6 3.2 0.00 0.00 0.00 73 1015.4
20260507093003 13 250 0.0 4.8 0.00 0.00 0.00 75 1015.5
20260507092024 13 131 0.0 4.8 0.00 0.00 0.00 76 1015.7
20260507091003 13 130 0.0 4.8 0.00 0.00 0.00 75 1015.6
20260507090003 13 212 0.0 3.2 0.00 0.00 0.00 74 1015.5
20260507085024 12 212 0.0 3.2 0.00 0.00 0.00 77 1015.9
20260507084003 12 212 0.0 4.8 0.00 0.00 0.00 78 1015.8
20260507083024 11 212 0.0 3.2 0.00 0.00 0.00 79 1016.0
20260507082003 11 212 0.0 3.2 0.00 0.00 0.00 79 1016.0
20260507081003 11 212 0.0 3.2 0.00 0.00 0.00 80 1015.9
20260507080003 10 215 0.0 4.8 0.00 0.00 0.00 81 1015.7
20260507075003 10 255 0.0 3.2 0.00 0.00 0.00 81 1016.0
20260507074003 10 241 0.0 1.6 0.00 0.00 0.00 81 1015.6
20260507073024 10 238 0.0 1.6 0.00 0.00 0.00 81 1015.7
20260507072003 10 226 0.0 3.2 0.00 0.00 0.00 82 1015.7
20260507071003 10 225 0.0 3.2 0.00 0.00 0.00 83 1015.6
20260507070005 10 244 0.0 4.8 0.00 0.00 0.00 83 1015.7
20260507065003 9 235 0.0 3.2 0.00 0.00 0.00 83 1015.7
20260507063003 9 232 0.0 3.2 0.00 0.00 0.00 84 1015.6
20260507062003 8 233 0.0 3.2 0.00 0.00 0.00 84 1015.6
20260507061003 8 215 0.0 1.6 0.00 0.00 0.00 85 1015.7
20260507060024 8 215 0.0 1.6 0.00 0.00 0.00 85 1015.7
20260507055024 8 215 0.0 1.6 0.00 0.00 0.00 85 1015.4
20260507054024 8 0 0.0 1.6 0.00 0.00 0.00 85 1015.2
20260507053003 8 215 0.0 1.6 0.00 0.00 0.00 85 1015.4
20260507052003 8 0 0.0 0.0 0.00 0.00 0.00 86 1015.3
20260507051003 8 0 0.0 0.0 0.00 0.00 0.00 86 1015.5
20260507050003 8 0 0.0 0.0 0.00 0.00 0.00 86 1015.2
20260507045003 8 216 0.0 1.6 0.00 0.00 0.00 85 1015.3
20260507044003 8 215 0.0 1.6 0.00 0.00 0.00 85 1015.2
20260507043003 8 0 0.0 0.0 0.00 0.00 0.00 84 1015.1
20260507042003 8 0 0.0 1.6 0.00 0.00 0.00 84 1015.1
20260507041003 8 0 0.0 0.0 0.00 0.00 0.00 85 1015.1
20260507040003 8 0 0.0 1.6 0.00 0.00 0.00 85 1015.2
20260507035003 8 0 0.0 0.0 0.00 0.00 0.00 84 1015.1
20260507034003 8 0 0.0 1.6 0.00 0.00 0.00 84 1015.1
20260507033003 8 214 0.0 1.6 0.00 0.00 0.00 83 1015.0
20260507032024 8 0 0.0 0.0 0.00 0.00 0.00 83 1014.9
20260507031024 8 0 0.0 0.0 0.00 0.00 0.00 81 1014.9
20260507030024 8 0 0.0 0.0 0.00 0.00 0.00 81 1015.1
20260507025003 8 0 0.0 1.6 0.00 0.00 0.00 80 1015.1
20260507024003 8 0 0.0 0.0 0.00 0.00 0.00 80 1015.0
20260507023003 8 0 0.0 1.6 0.00 0.00 0.00 80 1015.0
20260507022003 8 0 0.0 0.0 0.00 0.00 0.00 79 1015.0
20260507021003 8 0 0.0 0.0 0.00 0.00 0.00 79 1014.9
20260507020003 8 214 0.0 1.6 0.00 0.00 0.00 79 1015.0
20260507015004 8 0 0.0 1.6 0.00 0.00 0.00 79 1015.0